{"data":{"norad_id":62604,"intl_designator":"2025-008T","name":"STARLINK-32710","alt_names":[],"object_type":"PAYLOAD","status":"ACTIVE","operator":null,"country":"US","launch_date":"2025-01-13","launch_site_code":"AFETR","launch_vehicle":null,"mission":null,"orbit_class":"UNKNOWN","rcs_meters":null,"size_class":null,"mass_kg":null,"dimensions":null,"purposes":["comms"],"wikipedia_slug":null,"has_3d_model":false,"image_url":null,"decayed_at":null,"tle_current":{"epoch":"2026-09-21T08:39:59.503968Z","epoch_age_seconds":96861,"freshness":"FRESH","line1":"1 62604U 25008T   26264.36110537  .00009269  00000+0  34582-3 0  9999","line2":"2 62604  43.0035 252.5404 0001741 275.9206  84.1447 15.27590829 95494","mean_motion":15.27590829,"eccentricity":0.0001741,"inclination_deg":43.0035,"raan_deg":252.5404,"arg_perigee_deg":275.9206,"mean_anomaly_deg":84.1447,"bstar":0.00034582,"rev_number":9549,"period_min":94.266080462309,"perigee_km":481.8221434555,"apogee_km":484.2111971635,"semimajor_km":6861.1536703095,"source":"CELESTRAK","updated_at":"2026-09-22T09:00:49.633756Z"}}}